www.pogodaiklimat.ru

Погода и климат >> Архив погоды >> Австралия >> Северная территория >> Борролоола


ПОГОДА в Борролооле

  • Прогноз погоды в Борролооле
  • Монитор погоды в Борролооле

АРХИВ ПОГОДЫ в Борролооле

Время (UTC), дата Ветер
(напр.,м/с)
 
Видим.   Явления Облачность Т
(С)
Тd
(С)
f
(%)
Тe
(С)
Тes
(С)
Комфортность P
(гПа)
Po
(гПа)
Тmin
(С)
Tmax
(С)
R
(мм)
R24
(мм)
S
(см)
11 12.06 СВ 3 н/о н/о +23.0 +16.5 67 +28 +28 душно 1015.4 1013.5
14 12.06 ЮВ 2 н/о н/о +19.7 +17.5 87 +23 +23 комфорт 1015.3 1013.4 +34.0
17 12.06 штиль 0 н/о н/о +17.7 +16.2 91 +18 +18 1014.7 1012.8
20 12.06 З 1 н/о н/о +18.6 +18.1 97 +21 +21 комфорт 1014.2 1012.3
23 12.06 Ю 3 н/о н/о +21.0 +20.8 99 +27 +27 душно 1015.7 1013.8
02 13.06 В 5 н/о {туман} н/о +29.6 +16.1 44 +33 +33 душно 1015.8 1013.9 +16.9
05 13.06 СВ 5 н/о {туман} н/о +30.9 +14.1 36 +33 +33 душно 1012.5 1010.6 0.2
08 13.06 СВ 4 н/о н/о +28.4 +16.0 47 +32 +32 душно 1012.7 1010.8
11 13.06 СВ 3 н/о н/о +23.3 +18.6 75 +29 +29 душно 1014.7 1012.8
14 13.06 штиль 0 н/о н/о +19.1 +16.9 87 +21 +21 комфорт 1015.6 1013.7 +33.5
17 13.06 штиль 0 н/о н/о +17.2 +15.5 90 +17 +17 1014.6 1012.7
20 13.06 Ю 1 н/о н/о +19.7 +19.2 97 +24 +24 комфорт 1014.4 1012.5
23 13.06 Ю 3 н/о н/о +21.6 +21.4 99 +28 +28 очень
душно
1015.8 1013.9 0.2
02 14.06 В 5 н/о н/о +31.7 +14.8 36 +34 +34 душно 1014.8 1012.9 +17.1
05 14.06 В 5 н/о н/о +33.4 +13.5 30 +34 +34 очень
жарко
1011.9 1010.0
08 14.06 СВ 6 н/о н/о +27.8 +14.4 44 +30 +30 жарко 1012.4 1010.5
11 14.06 СВ 2 н/о н/о +22.8 +16.1 66 +27 +27 душно 1014.4 1012.5
14 14.06 штиль 0 н/о н/о +18.4 +15.3 82 +19 +19 1014.3 1012.4 +34.0
17 14.06 штиль 0 н/о н/о +21.0 +19.7 92 +26 +26 душно 1013.9 1012.0
20 14.06 штиль 0 н/о н/о +17.1 +16.0 93 +17 +17 1014.3 1012.4
23 14.06 ЮЗ 3 н/о н/о +22.0 +18.8 82 +27 +27 душно 1016.0 1014.1
02 15.06 В 4 н/о н/о +30.8 +13.6 35 +32 +32 жарко 1014.9 1013.0 +16.1
05 15.06 В 4 н/о н/о +33.0 +13.1 30 +34 +34 очень
жарко
1012.2 1010.3
08 15.06 СВ 5 н/о н/о +28.2 +12.5 38 +30 +30 жарко 1012.8 1010.9
11 15.06 штиль 0 н/о н/о +23.3 +14.0 56 +27 +27 душно 1014.6 1012.7
14 15.06 штиль 0 н/о н/о +18.0 +13.1 73 +18 +18 1015.2 1013.3 +33.6
17 15.06 штиль 0 н/о н/о +15.5 +12.4 82 +15 +15 1014.4 1012.5
20 15.06 штиль 0 н/о н/о +15.2 +13.1 87 +15 +15 1014.5 1012.6
23 15.06 Ю 2 н/о н/о +21.7 +16.2 71 +25 +25 комфорт 1016.4 1014.5
02 16.06 В 4 н/о н/о +30.8 +14.0 36 +32 +32 жарко 1015.7 1013.8 +14.8
05 16.06 В 5 н/о н/о +32.7 +10.7 26 +32 +32 жарко 1013.0 1011.1
08 16.06 СВ 5 н/о н/о +29.0 +12.4 36 +30 +30 жарко 1013.2 1011.3
11 16.06 СВ 1 н/о н/о +23.0 +15.3 62 +27 +27 душно 1015.4 1013.5
14 16.06 штиль 0 н/о н/о +18.4 +14.5 78 +19 +19 1016.1 1014.2 +34.0
17 16.06 штиль 0 н/о н/о +16.3 +14.1 87 +16 +16 1015.7 1013.8
20 16.06 штиль 0 н/о н/о +15.0 +13.5 91 +15 +15 1016.5 1014.6
23 16.06 Ю 4 н/о н/о +22.4 +13.5 57 +25 +25 комфорт 1017.9 1016.0
02 17.06 ЮВ 6 н/о н/о +29.8 +10.4 30 +30 +30 жарко 1017.2 1015.3 +14.1
05 17.06 В 6 н/о н/о +31.7 +8.0 23 +31 +31 жарко 1014.1 1012.2
08 17.06 ЮВ 3 н/о н/о +29.3 +7.2 25 +28 +28 жарко 1013.9 1012.0
11 17.06 СВ 2 н/о н/о +22.2 +14.1 60 +25 +25 комфорт 1016.3 1014.4
14 17.06 штиль 0 н/о н/о +15.9 +12.1 78 +16 +16 1016.8 1014.9 +32.6
17 17.06 штиль 0 н/о н/о +13.5 +10.5 82 +13 +13 1016.6 1014.7
20 17.06 ЮЗ 3 н/о н/о +13.5 +8.4 71 +13 +13 1016.9 1015.0
23 17.06 Ю 4 н/о н/о +20.2 +3.9 34 +21 +21 комфорт 1018.5 1016.6
02 18.06 Ю 5 н/о н/о +26.8 +0.5 18 +25 +25 комфорт 1017.7 1015.8 +11.9
05 18.06 Ю 6 н/о н/о +28.8 -1.3 14 +26 +26 жарко 1014.9 1013.0
08 18.06 ЮВ 5 н/о н/о +25.7 -8.2 10 +23 +23 комфорт 1015.1 1013.2
11 18.06 Ю 2 н/о н/о +16.2 -2.8 27 +17 +17 1016.9 1015.0
14 18.06 штиль 0 н/о н/о +11.1 +1.9 53 +11 +11 1017.5 1015.6 +30.3
17 18.06 ЮВ 2 н/о н/о +9.1 +1.8 60 +8 +8 1017.2 1015.3
20 18.06 штиль 0 н/о н/о +7.2 +1.7 68 +7 +7 1017.8 1015.9
23 18.06 Ю 4 н/о н/о +17.0 +1.8 36 +17 +17 1018.9 1017.0
02 19.06 ЮВ 6 н/о н/о +24.2 +0.5 21 +23 +23 комфорт 1017.7 1015.8 +6.4
05 19.06 Ю 4 н/о н/о +27.1 0.0 17 +25 +25 комфорт 1014.3 1012.4
08 19.06 Ю 3 н/о н/о +25.1 -0.9 18 +23 +23 комфорт 1014.8 1012.9

 

Местоположение метеостанции Борролоола (Северная территория, Австралия): широта -16.08 долгота 136.30 высота над уровнем моря 17 м.

В архиве по умолчанию представлена погода в Борролооле за последнюю неделю. Архивные данные за месяц целиком и за предыдущие месяцы, начиная с января 2011 года, Вы можете получить, выбрав интересующий диапазон дат из раскрывающегося списка и нажав кнопку "Ввод!".


*Определитесь, кто Вы:
робот инопланетянин человек

Внимание! Время в таблицах - всемирное. Для получения местного времени необходимо прибавить поправку, которая равна 9.5 ч.

Смотрите также архив погоды в соседних городах и на ближайших метеорологических станциях:

Погода в Аэропорту Макартур Ривер Майн (Северная территория, Австралия) (46 км)
Погода на Острове Центр (Северная территория, Австралия) (65 км)
Погода в Аэропорту Грут-Айленд (Северная территория, Австралия) (234 км)
Погода на Острове Северо-восточный (Северная территория, Австралия) (279 км)
Погода на Острове Морнингтон (Квинсленд, Австралия) (313 км)
Погода в Дейли Уотерс (Северная территория, Австралия) (314 км)
Погода в Булман Уимол (Северная территория, Австралия) (342 км)
Погода в Беркетауне (Квинсленд, Австралия) (391 км)
Погода на Руднике Century Mine (Квинсленд, Австралия) (391 км)
Погода в Аэропорту Гоув (Северная территория, Австралия) (426 км)

Пояснения к столбцам:

Ветер - указаны скорость ветра в м/с - средняя за 10 мин, порывы в срок и между сроками (в фигурных скобках) и направление, откуда дует ветер: С - северный, СВ - северо-восточный, В - восточный, ЮВ - юго-восточный, Ю - южный, ЮЗ - юго-западный, З - западный, СЗ - северо-западный.
Видимость - горизонтальная дальность видимости в метрах или километрах. При видимости от 1 до 10 км при отсутствии осадков обычно наблюдается дымка, при ухудшении видимости до 1 км и менее - туман. В сухую погоду видимость может ухудшаться дымом, пылью или мглою.
Явления - указаны атмосферные явления, наблюдавшиеся в срок или в последний час перед сроком; фигурными скобками обозначены явления, наблюдавшиеся между сроками (за 1-3 часа до срока); квадратными скобками обозначены град или гололедные отложения с указанием их диаметра в мм.
Облачность - указаны через наклонную черту общая и нижняя облачность в баллах и высота нижней границы облаков в метрах; квадратными скобками обозначены формы облаков: Ci - перистые, Cs - перисто-слоистые, Cc - перисто-кучевые, Ac - высококучевые, As - высокослоистые, Sc - слоисто-кучевые, Ns - слоисто-дождевые, Cu - кучевые, Cb - кучево-дождевые. Подробнее классификацию облаков см. в Атласе облаков (PDF).
T - Температура воздуха - температура, измеренная на высоте 2 м над землей.
Td - Температура точки росы - температура, при понижении до которой содержащийся в воздухе водяной пар достигнет насыщения.
f - Относительная влажность воздуха - влажноcть воздуха, измеренная на высоте 2 м над землей.
Te - Эффективная температура - температура, которую ощущает одетый по сезону человек в тени. Характеристика душности погоды. При расчете учитывается влияние влажности воздуха и скорости ветра на теплоощущения человека.
Tes - Эффективная температура на солнце - температура, которую ощущает человек, с поправкой на солнечный нагрев. Характеристика знойности погоды. Зависит от высоты солнца над горизонтом, облачности и скорости ветра. Ночью, в пасмурную погоду, а также при ветре 12 м/с и более поправка равна нулю.
P - Атмосферное давление - приведенное к уровню моря атмосферное давление.
Po - Атмосферное давление - измеренное на уровне метеостанции атмосферное давление.
Tmin - Минимальная температура - минимум температуры воздуха на высоте 2 м над землей.
Tmax - Максимальная температура - максимум температуры воздуха на высоте 2 м над землей.
R - Количество осадков - Количество выпавших осадков за период времени, мм. При наведении курсора мыши на число - период времени, за который выпало указанное количество осадков.
R24 - Количество осадков - Количество выпавших осадков за 24 часа, мм.
S - Снежный покров - Высота снежного покрова, см. При наведении курсора мыши на число - состояние снежного покрова и степень покрытия местности в баллах.